This is the latest recevied weather packets stored in our database for station/object KC3VCX. If no packets are shown the sender has not sent any weather packets the latest 1 day(s).
| Time | Temp. | Humidity | Pressure | Rain* | Wind** | Luminosity | Snow |
|---|---|---|---|---|---|---|---|
| 1777975559 | 15.56° C | 69% | 1010.2 hPa | 0 mm | 0.45 m/s, 140° | 1 W/m² | - |
| 1777975256 | 15.56° C | 70% | 1010.1 hPa | 0 mm | 1.34 m/s, 228° | 0 W/m² | - |
| 1777974952 | 15.56° C | 69% | 1010.2 hPa | 0 mm | 0.45 m/s, 160° | 0 W/m² | - |
| 1777974649 | 15.56° C | 69% | 1010.1 hPa | 0 mm | 1.79 m/s, 286° | 0 W/m² | - |
| 1777974345 | 15.56° C | 70% | 1010 hPa | 0 mm | 2.68 m/s, 150° | 0 W/m² | - |
| 1777974042 | 15° C | 70% | 1010 hPa | 0 mm | 1.79 m/s, 157° | 0 W/m² | - |
| 1777973738 | 15° C | 72% | 1009.9 hPa | 0 mm | 0.89 m/s, 201° | 0 W/m² | - |
| 1777973436 | 15° C | 70% | 1009.9 hPa | 0 mm | 1.34 m/s, 124° | 0 W/m² | - |
| 1777973133 | 15° C | 72% | 1009.8 hPa | 0 mm | 0.89 m/s, 87° | 0 W/m² | - |
| 1777972831 | 15° C | 72% | 1010 hPa | 0 mm | 0.89 m/s, 204° | 0 W/m² | - |
| 1777972528 | 14.44° C | 74% | 1010 hPa | 0 mm | 0.45 m/s, 69° | 0 W/m² | - |
| 1777972226 | 14.44° C | 74% | 1009.9 hPa | 0 mm | 1.34 m/s, 80° | 0 W/m² | - |
| 1777971924 | 13.89° C | 76% | 1010 hPa | 0 mm | 0 m/s | 0 W/m² | - |
| 1777971622 | 13.89° C | 76% | 1009.9 hPa | 0 mm | 0.89 m/s, 111° | 0 W/m² | - |
| 1777971319 | 13.89° C | 77% | 1009.8 hPa | 0 mm | 0 m/s | 0 W/m² | - |
| 1777971017 | 14.44° C | 77% | 1009.9 hPa | 0 mm | 0 m/s | 0 W/m² | - |
| 1777970715 | 14.44° C | 77% | 1009.9 hPa | 0 mm | 0.45 m/s, 86° | 0 W/m² | - |
| 1777970413 | 13.89° C | 78% | 1009.9 hPa | 0 mm | 0.45 m/s, 82° | 0 W/m² | - |
| 1777970110 | 14.44° C | 78% | 1010.1 hPa | 0 mm | 0 m/s | 0 W/m² | - |
| 1777969806 | 14.44° C | 78% | 1009.9 hPa | 0 mm | 0.45 m/s, 43° | 0 W/m² | - |
| 1777969502 | 14.44° C | 77% | 1010.1 hPa | 0 mm | 0.45 m/s, 55° | 0 W/m² | - |
| 1777969199 | 14.44° C | 78% | 1009.9 hPa | 0 mm | 0.45 m/s, 85° | 0 W/m² | - |
| 1777968895 | 14.44° C | 77% | 1010.1 hPa | 0 mm | 0 m/s | 0 W/m² | - |
| 1777968592 | 14.44° C | 78% | 1010 hPa | 0 mm | 0.89 m/s, 45° | 0 W/m² | - |
| 1777968288 | 14.44° C | 76% | 1009.9 hPa | 1.27 mm | 0.45 m/s, 164° | 0 W/m² | - |
* Rain latest hour (hover to see other rain measurements)
** Current wind speed in m/s (hover to see current wind gust speed)